[[{"header":{"parameterUnit":"m.s-1","parameterCategory":1,"la1":30.2991,"la2":30.254,"lo1":-89.0895,"lo2":-89.0444,"dy":0.0017,"dx":0.0017,"nx":28,"ny":28,"refTime":"2024-06-04T03:00:00:Z","depth":0,"parameterNumber":2,"parameterNumberName":"U-component_of_WINDS"},"data":[0,0,0,0,0,0,0,0,0,0,0,0,0,0,0,0,0,0,0,0,0,0,0,0,0,0,0,0,0,0,0,0,0,0,0,0,0,0,0,0,0,0,0,0,0,0,0,0,0,0,0,0,0,0,0,0,0,0,0.1229,0.1228,0,0.1154,0.1154,0.1153,0.1059,0.1058,0.1056,0.1055,0.0983,0.0982,0.0982,0,0,0,0,0,0,0,0,0,0,0,0,0,0.1295,0.1294,0.1229,0.1228,0.1227,0.1155,0.1154,0.1153,0.106,0.1058,0.1056,0.1054,0.0983,0.0982,0.0982,0,0,0,0,0,0,0,0,0,0,0,0,0,0.1248,0.1294,0.1229,0.1172,0.1166,0.1155,0.1153,0.1152,0.106,0.1058,0.1056,0.1053,0.0983,0.0982,0.0981,0.1021,0,0,0.0979,0.0979,0,0,0,0,0,0,0,0,0.1251,0.1246,0.1181,0.1176,0.1169,0.1114,0.115,0.1109,0.1061,0.11,0.1055,0.1052,0.1028,0.1024,0.1015,0.1018,0.1015,0.0979,0.0978,0.0978,0.0978,0,0,0,0,0,0,0,0.1254,0.1248,0.1199,0.118,0.1173,0.1151,0.1142,0.1142,0.1078,0.1097,0.109,0.1082,0.1025,0.1016,0.1012,0.1014,0.0979,0.0978,0.0978,0.0977,0.1048,0.105,0,0,0,0,0,0,0.1265,0.1252,0.1202,0.1197,0.1205,0.1152,0.1142,0.1134,0.1078,0.1067,0.1084,0.1078,0.1018,0.1013,0.101,0.1053,0.0978,0.0977,0.0977,0.1046,0.1048,0.1051,0,0,0,0,0,0,0.1267,0.1262,0.1205,0.1222,0.1213,0.1153,0.1145,0.1134,0.1124,0.1068,0.1057,0.1086,0.1016,0.1011,0.1019,0.105,0.0977,0.0976,0.1043,0.1046,0.105,0.1142,0,0,0,0,0,0,0.1269,0.1263,0.1276,0.1223,0.1213,0.1215,0.1147,0.1134,0.1123,0.1114,0.1067,0.1057,0.1014,0.1021,0.1018,0.1047,0.0976,0.104,0.1044,0.1049,0.1136,0.1148,0.1158,0,0,0,0,0,0.1272,0.1306,0.1278,0.1272,0.1228,0.1217,0.1211,0.1159,0.1126,0.114,0.1104,0.1059,0.1047,0.1023,0.1019,0.1048,0.1038,0.1043,0.1048,0.113,0.1145,0.1158,0,0,0,0,0,0,0.1365,0.1298,0.1266,0.1283,0.1256,0.1201,0.1217,0.1177,0.1159,0.1152,0.109,0.108,0.1097,0.1073,0.1048,0.1085,0.1036,0.104,0.1099,0.1113,0.1124,0.113,0.0975,0,0,0,0,0,0.1387,0.1382,0.1324,0.1345,0.1333,0.1278,0.1271,0.1233,0.1203,0.1192,0.1156,0.113,0.112,0.1115,0.1103,0.1132,0.1121,0.115,0.1161,0.1171,0.1176,0.119,0.1203,0.1068,0.1068,0.1068,0,0,0.1433,0.1396,0.1397,0.1363,0.1338,0.1335,0.1269,0.1269,0.1266,0.1192,0.1198,0.1171,0.1138,0.1157,0.1164,0.1138,0.1211,0.1178,0.1186,0.1185,0.1197,0.121,0.1221,0.1072,0.1071,0.1071,0,0,0.1517,0.1488,0.1502,0.1478,0.1441,0.1404,0.1408,0.1359,0.1338,0.1342,0.1287,0.1284,0.1268,0.1247,0.1235,0.1311,0.127,0.1309,0.1369,0.1384,0.1394,0.1404,0.1432,0.1443,0.1315,0.1315,0.1315,0,0.1579,0.1572,0.1515,0.1519,0.1506,0.1438,0.1453,0.1433,0.1395,0.1388,0.1359,0.1338,0.1311,0.1325,0.1344,0.1336,0.1339,0.1315,0.1397,0.1406,0.1414,0.144,0.1451,0.132,0.1319,0.1319,0.1318,0,0.1652,0.1648,0.1664,0.1628,0.1617,0.1626,0.1573,0.1569,0.1533,0.15,0.1506,0.1471,0.1451,0.1452,0.1417,0.1461,0.1446,0.1408,0.1358,0.1432,0.1456,0.1466,0.1327,0.1325,0.1324,0.1323,0,0,0.179,0.1723,0.173,0.1713,0.1667,0.1664,0.1671,0.1651,0.1649,0.1625,0.163,0.1619,0.1584,0.157,0.1532,0.1545,0.161,0.1506,0.1504,0.1527,0.1658,0.1687,0.1699,0.1582,0.1583,0.1585,0.1661,0,0.1866,0.1873,0.1823,0.1844,0.1841,0.1777,0.1783,0.1757,0.1726,0.172,0.1686,0.168,0.1633,0.1624,0.1634,0.16,0.1635,0.1593,0.1588,0.1588,0.1598,0.1711,0.1742,0.1815,0.1669,0.1671,0.1672,0,0.1954,0.1934,0.1955,0.1909,0.1906,0.1913,0.1891,0.1885,0.1854,0.1831,0.1816,0.1772,0.1778,0.173,0.1737,0.171,0.1705,0.1688,0.169,0.1687,0.1635,0.1713,0.1836,0.1848,0.1686,0.1685,0.1684,0,0.2054,0.2033,0.2043,0.203,0.1977,0.1983,0.1962,0.1929,0.192,0.1901,0.1895,0.1878,0.1869,0.1857,0.1811,0.178,0.1824,0.1772,0.1806,0.1808,0.1818,0.1818,0.1944,0.1815,0.1815,0.1814,0.1814,0,0.2143,0.2159,0.2087,0.2094,0.211,0.2053,0.2071,0.2043,0.2015,0.2015,0.1959,0.1961,0.19,0.1896,0.186,0.1872,0.1868,0.185,0.1841,0.1856,0.1858,0.1851,0.1845,0.1817,0.1817,0.1816,0.1816,0,0.2258,0.221,0.2217,0.2166,0.2154,0.2168,0.2125,0.213,0.2096,0.2098,0.2095,0.2043,0.2035,0.1987,0.1969,0.1945,0.197,0.1951,0.1981,0.1974,0.2011,0.2009,0.2137,0.2151,0.2014,0.2015,0.2016,0,0.2318,0.2328,0.2279,0.2275,0.2256,0.225,0.2241,0.2186,0.2179,0.2146,0.2155,0.2143,0.213,0.2121,0.2082,0.2068,0.2047,0.2093,0.2045,0.206,0.2049,0.2049,0.205,0.2104,0.2106,0.2107,0.2108,0,0.243,0.2406,0.2395,0.2376,0.2367,0.2349,0.2328,0.2329,0.2268,0.2264,0.2254,0.2245,0.2226,0.2215,0.2194,0.2173,0.2131,0.2124,0.2131,0.2146,0.2164,0.2155,0.2009,0.2121,0.212,0.2119,0.2118,0.2118,0.2519,0.2526,0.2493,0.2482,0.2461,0.2443,0.2445,0.2412,0.2403,0.2383,0.2351,0.2347,0.2318,0.2285,0.2268,0.2265,0.224,0.2251,0.2253,0.2257,0.2265,0.2164,0.2261,0.226,0.226,0.226,0.2259,0,0.2629,0.2604,0.2596,0.2568,0.2561,0.2521,0.2497,0.2493,0.249,0.2465,0.2454,0.2445,0.2434,0.2394,0.238,0.2385,0.2365,0.2383,0.2382,0.2378,0.2287,0.2283,0.2399,0.2399,0.2399,0.2399,0.2399,0.2399,0.2685,0.2695,0.2667,0.2667,0.2642,0.2637,0.2627,0.261,0.2591,0.2582,0.2573,0.2547,0.2517,0.25,0.2489,0.2477,0.2475,0.2499,0.2482,0.2398,0.2384,0.2372,0.2367,0.2499,0.2499,0.2573,0.2573,0.2574]},{"header":{"parameterUnit":"m.s-1","parameterCategory":1,"la1":30.2991,"la2":30.254,"lo1":-89.0895,"lo2":-89.0444,"dy":0.0017,"dx":0.0017,"nx":28,"ny":28,"refTime":"2024-06-04T03:00:00:Z","depth":0,"parameterNumber":3,"parameterNumberName":"V-component_of_WINDS"},"data":[0,0,0,0,0,0,0,0,0,0,0,0,0,0,0,0,0,0,0,0,0,0,0,0,0,0,0,0,0,0,0,0,0,0,0,0,0,0,0,0,0,0,0,0,0,0,0,0,0,0,0,0,0,0,0,0,0,0,4.1086,4.1087,0,4.1204,4.1206,4.1207,4.1256,4.1256,4.1255,4.1255,4.137,4.1373,4.1377,0,0,0,0,0,0,0,0,0,0,0,0,0,4.0897,4.09,4.1086,4.1087,4.1089,4.1204,4.1206,4.1207,4.1256,4.1256,4.1255,4.1255,4.1369,4.1373,4.1377,0,0,0,0,0,0,0,0,0,0,0,0,0,4.0993,4.0901,4.1086,4.1127,4.1132,4.1204,4.1206,4.1208,4.1256,4.1256,4.1255,4.1255,4.1368,4.1373,4.1377,4.1415,0,0,4.1392,4.1395,0,0,0,0,0,0,0,0,4.0988,4.1,4.1119,4.1124,4.113,4.1215,4.1181,4.1277,4.1256,4.1209,4.1255,4.1255,4.1318,4.1327,4.135,4.142,4.1425,4.1393,4.1396,4.1398,4.1399,0,0,0,0,0,0,0,4.0981,4.0995,4.1132,4.1121,4.1128,4.1138,4.1152,4.12,4.1264,4.1213,4.1217,4.123,4.1321,4.1345,4.1353,4.1427,4.1393,4.1397,4.14,4.1402,4.1534,4.1535,0,0,0,0,0,0,4.0968,4.099,4.1129,4.1136,4.1057,4.1142,4.1157,4.1188,4.1264,4.1275,4.123,4.1232,4.1337,4.1347,4.1357,4.1407,4.1398,4.1403,4.1405,4.1534,4.1534,4.1535,0,0,0,0,0,0,4.0964,4.098,4.1124,4.1064,4.1083,4.1146,4.118,4.119,4.1215,4.1277,4.1288,4.1244,4.1337,4.1351,4.1401,4.1412,4.1405,4.1409,4.1533,4.1534,4.1535,4.1505,0,0,0,0,0,0,4.0959,4.0979,4.0994,4.1064,4.1086,4.1167,4.1181,4.1193,4.1224,4.1227,4.1292,4.1303,4.1338,4.1393,4.1406,4.1418,4.1413,4.1532,4.1533,4.1534,4.1506,4.1505,4.1505,0,0,0,0,0,4.0952,4.098,4.0995,4.1012,4.1108,4.1167,4.118,4.1222,4.1224,4.124,4.1281,4.1301,4.1408,4.1398,4.1412,4.1426,4.1532,4.1533,4.1534,4.1506,4.1505,4.1505,0,0,0,0,0,0,4.0908,4.099,4.1007,4.106,4.1106,4.1176,4.1197,4.1219,4.1265,4.1266,4.1314,4.1328,4.1374,4.1405,4.1392,4.1467,4.1472,4.1476,4.1445,4.1445,4.1444,4.1436,4.1417,0,0,0,0,0,4.0904,4.0948,4.1017,4.1056,4.1079,4.1134,4.1161,4.119,4.1239,4.1258,4.1302,4.1348,4.1392,4.142,4.1464,4.151,4.1525,4.1527,4.1527,4.1526,4.1529,4.1556,4.1558,4.1539,4.1539,4.1539,0,0,4.0897,4.0948,4.0972,4.1048,4.1088,4.113,4.115,4.1194,4.1225,4.1264,4.1316,4.1349,4.1403,4.1452,4.1475,4.1479,4.1537,4.1528,4.1527,4.153,4.1557,4.1559,4.1561,4.154,4.154,4.1539,0,0,4.0907,4.0949,4.0987,4.1027,4.1088,4.1124,4.1133,4.12,4.1224,4.1277,4.1307,4.1344,4.142,4.1458,4.1486,4.1511,4.1531,4.1524,4.1521,4.1547,4.1548,4.155,4.1559,4.1561,4.1527,4.1526,4.1526,0,4.0889,4.0957,4.1003,4.1046,4.1079,4.1119,4.1157,4.1193,4.1263,4.1284,4.1288,4.1385,4.1424,4.1482,4.1488,4.151,4.1521,4.1516,4.1545,4.1547,4.1549,4.1558,4.1561,4.1525,4.1525,4.1526,4.1526,0,4.0933,4.0979,4.1002,4.1073,4.1108,4.1148,4.1199,4.1229,4.1254,4.129,4.1342,4.1391,4.1446,4.1462,4.1486,4.1524,4.1524,4.1536,4.1541,4.1549,4.1558,4.1562,4.1523,4.1524,4.1524,4.1525,0,0,4.0917,4.1014,4.1022,4.1054,4.1125,4.116,4.1202,4.1258,4.1283,4.133,4.1366,4.1429,4.1441,4.1474,4.1502,4.1525,4.1542,4.1534,4.1536,4.1534,4.1586,4.1577,4.1581,4.1556,4.1557,4.1557,4.1582,0,4.0936,4.1015,4.1058,4.1118,4.1161,4.12,4.1236,4.1282,4.1317,4.1357,4.1394,4.1439,4.1451,4.1471,4.1495,4.1535,4.1553,4.1533,4.1588,4.1589,4.1573,4.1585,4.1576,4.1597,4.1586,4.1586,4.1587,0,4.0968,4.1018,4.1083,4.115,4.1169,4.1201,4.1257,4.1295,4.1348,4.1371,4.1409,4.1438,4.1482,4.1484,4.1545,4.1531,4.1556,4.1579,4.158,4.1587,4.1588,4.1592,4.1604,4.1607,4.1593,4.1592,4.1592,0,4.0951,4.1034,4.1084,4.111,4.1189,4.1211,4.1244,4.1297,4.1328,4.1376,4.1396,4.1447,4.1475,4.1514,4.1555,4.1553,4.1612,4.1617,4.1631,4.163,4.1642,4.1641,4.1658,4.1658,4.1658,4.1658,4.1657,0,4.0968,4.1006,4.1077,4.1108,4.1151,4.12,4.1241,4.1278,4.1324,4.1362,4.1397,4.1431,4.1484,4.1524,4.1556,4.1602,4.1614,4.1633,4.1641,4.163,4.1628,4.1647,4.1646,4.1658,4.1658,4.1658,4.1658,0,4.0955,4.1005,4.1062,4.1132,4.1151,4.118,4.124,4.127,4.1307,4.1353,4.1367,4.1424,4.1473,4.1519,4.1583,4.1605,4.1651,4.1661,4.1633,4.1638,4.1649,4.1648,4.168,4.1687,4.1681,4.1681,4.1681,0,4.0963,4.0993,4.1068,4.1097,4.113,4.1175,4.1208,4.1257,4.129,4.1353,4.1375,4.1427,4.1472,4.1548,4.1594,4.1643,4.1655,4.1663,4.1662,4.165,4.1655,4.1653,4.1656,4.1662,4.1662,4.1661,4.1661,0,4.0971,4.0994,4.1041,4.1097,4.1136,4.1181,4.1228,4.1249,4.1306,4.1341,4.1393,4.1427,4.1494,4.1545,4.16,4.1632,4.1656,4.1661,4.1667,4.1656,4.1639,4.1649,4.1631,4.166,4.166,4.166,4.166,4.1661,4.0969,4.0998,4.1056,4.1107,4.1148,4.1191,4.1224,4.1266,4.131,4.137,4.1396,4.1448,4.15,4.1577,4.1609,4.165,4.1655,4.1663,4.1665,4.1666,4.1664,4.1633,4.166,4.166,4.166,4.166,4.166,0,4.0979,4.1019,4.1066,4.1131,4.1171,4.1192,4.1245,4.1277,4.1323,4.1371,4.1414,4.1474,4.1523,4.1574,4.1626,4.1649,4.1661,4.1661,4.1659,4.1666,4.1657,4.1647,4.165,4.165,4.165,4.165,4.165,4.165,4.099,4.1041,4.1071,4.1142,4.1181,4.1235,4.1263,4.1302,4.1341,4.1406,4.1449,4.1482,4.1531,4.1587,4.1633,4.1646,4.1664,4.166,4.1677,4.1667,4.1667,4.1667,4.1658,4.1664,4.1664,4.1683,4.1683,4.1683]}]]